Flag for France Weather past 2 weeks in Bourges, France

Now
76 °F

Scattered clouds.


Feels Like: 78 °F
Forecast: 54 / 90 °F
Wind: 13 mph from West

Location: Bourges

Current Time: Aug 4, 2015 at 6:32:01 PM

Latest Report: Aug 4, 2015 at 5:00 PM


Visibility: 25 mi

Pressure: 30.07 "Hg

Humidity: 41%

Dew point: 50 °F

Location of BourgesLocation

Historic Weather in Bourges — Graph

°F

Bourges temperature yesterday

Maximum temperature yesterday: 95 °F (at 5:00 PM)
Minimum temperature yesterday: 58 °F (at 7:00 AM)
Average temperature yesterday: 80 °F

Past Weeks' High & Low Weather Summary

 TemperatureHumidityPressure
High95 °F (Aug 3, 5:00 PM)96% (Jul 29, 1:00 AM)30.11 "Hg (Jul 29, 1:00 AM)
Low49 °F (Jul 26, 6:00 AM)25% (Aug 2, 5:00 PM)29.74 "Hg (Jul 24, 7:00 PM)
Average68 °F58%29.97 "Hg
* Reported Jul 20 5:00 PM — Aug 4 5:00 PM, Bourges, Weather by CustomWeather, © 2015

Note: Actual official high and low records may vary slightly from our data, if they occured in-between our weather recording intervals... More about our weather records

Advertising

Bourges weather history for previous 24 hours

 ConditionsComfort  
Time TempWeatherWind HumidityBarometerVisibility
5:00 PM
Tue, Aug 4
76 °FScattered clouds.13 mph41%30.07 "Hg25 mi
4:00 PM74 °FPartly sunny.12 mph43%30.07 "Hg25 mi
3:00 PM74 °FPartly sunny.10 mph46%30.07 "Hg25 mi
2:00 PM73 °FPartly sunny.10 mph51%30.08 "Hg25 mi
1:00 PM71 °FPartly sunny.9 mph55%30.08 "Hg19 mi
12:00 PM70 °FOvercast.7 mph70%30.08 "Hg12 mi
11:00 AM67 °FOvercast.7 mph84%30.07 "Hg9 mi
10:00 AM64 °FRain. Overcast.8 mph89%30.05 "Hg5 mi
9:00 AM64 °FOvercast.8 mph93%30.03 "Hg6 mi
8:00 AM64 °FLow clouds.6 mph95%30.01 "Hg6 mi
7:00 AM64 °FOvercast.3 mph95%30.00 "Hg6 mi
5:00 AM64 °FOvercast.8 mph92%29.98 "Hg12 mi
4:00 AM65 °FHeavy rain. Overcast.7 mph93%29.96 "Hg11 mi
3:00 AM66 °FHeavy rain. Overcast.9 mph85%29.97 "Hg7 mi
2:00 AM72 °FOvercast.5 mph64%29.90 "Hg12 mi
1:00 AM74 °FOvercast.3 mph59%29.91 "Hg12 mi
12:00 AM80 °FHeavy rain. Overcast.9 mph45%29.89 "Hg11 mi
10:00 PM
Mon, Aug 3
86 °FPassing clouds.5 mph30%29.84 "Hg12 mi
9:00 PM90 °FOvercast.8 mph27%29.82 "Hg12 mi
8:00 PM94 °FOvercast.8 mph25%29.82 "Hg12 mi
7:00 PM95 °FExtremely hot.7 mph25%29.82 "Hg12 mi
6:00 PM95 °FExtremely hot.9 mph25%29.84 "Hg12 mi
Weather by CustomWeather, © 2015

See weather overviewHow to use our weather pages